CW1575 Weather Reports


Display with metric or nautical units.
time (UTC)temp
F
wind
direction
speed
MPH
gust
MPH
rain 1hr
in
rain 24hr
in
rain mn
in
humidity
%
barometer
mb
20141223041508 27 293 1.0 2.0 0.00 0.17 0.05 90 1011.1
20141223040505 27 293 0.0 1.0 0.00 0.17 0.05 90 1010.8
20141223035506 27 293 1.0 3.0 0.00 0.17 0.05 90 1011.3
20141223034505 27 233 0.0 1.0 0.00 0.17 0.05 90 1011.0
20141223033506 27 233 0.0 2.0 0.00 0.17 0.05 90 1011.1
20141223032505 27 233 0.0 1.0 0.00 0.17 0.05 90 1010.9
20141223031506 27 233 0.0 2.0 0.00 0.17 0.05 90 1010.9
20141223030505 27 233 1.0 2.0 0.00 0.17 0.05 89 1010.7
20141223025506 27 203 1.0 2.0 0.00 0.17 0.05 89 1010.7
20141223024506 27 203 1.0 2.0 0.00 0.17 0.05 89 1010.5
20141223023825 28 203 0.0 1.0 0.00 0.17 0.05 89 1010.3
20141223022505 28 203 1.0 2.0 0.00 0.17 0.05 89 1010.3
20141223021505 28 203 0.0 1.0 0.00 0.17 0.05 89 1010.1
20141223020505 28 203 1.0 2.0 0.00 0.17 0.05 88 1010.0
20141223015506 28 203 1.0 3.0 0.00 0.17 0.05 88 1009.8
20141223014505 28 202 1.0 3.0 0.00 0.17 0.05 87 1009.5
20141223013505 28 219 0.0 2.0 0.00 0.17 0.05 87 1009.1
20141223012505 28 248 1.0 2.0 0.00 0.17 0.05 87 1009.2
20141223011505 29 248 0.0 2.0 0.00 0.17 0.05 87 1009.0
20141223010506 29 248 1.0 2.0 0.00 0.17 0.05 87 1008.8
20141223005505 29 249 1.0 3.0 0.00 0.17 0.05 87 1008.9
20141223004505 29 277 1.0 3.0 0.00 0.17 0.05 87 1008.7
20141223003505 29 277 1.0 3.0 0.00 0.17 0.05 87 1008.4
20141223002506 29 271 1.0 2.0 0.00 0.17 0.05 87 1008.3
20141223001505 29 305 1.0 2.0 0.00 0.17 0.05 86 1008.2
20141223000506 29 305 1.0 3.0 0.00 0.17 0.05 86 1008.0
20141222235505 29 262 1.0 3.0 0.00 0.17 0.05 86 1008.1
20141222234506 29 274 1.0 5.0 0.00 0.17 0.05 85 1007.7
20141222233505 29 15 1.0 3.0 0.01 0.17 0.05 84 1007.7
20141222232505 29 242 2.0 8.0 0.01 0.17 0.05 84 1007.4
20141222231506 29 298 4.0 10.0 0.03 0.17 0.05 84 1007.5
20141222230506 29 299 7.0 13.0 0.03 0.17 0.05 85 1007.5
20141222225505 29 354 5.0 15.0 0.03 0.17 0.05 87 1007.4
20141222224505 29 351 3.0 18.0 0.03 0.17 0.05 88 1007.5
20141222223506 30 26 3.0 15.0 0.02 0.16 0.04 87 1007.6
20141222222505 30 353 5.0 15.0 0.02 0.16 0.04 86 1007.5
20141222221506 31 4 9.0 15.0 0.00 0.14 0.02 84 1007.2
20141222220506 33 31 7.0 12.0 0.00 0.14 0.02 81 1006.9
20141222215505 34 15 7.0 13.0 0.00 0.14 0.02 77 1007.0
20141222214513 35 45 6.0 14.0 0.00 0.14 0.02 74 1006.5
20141222213505 35 105 1.0 3.0 0.00 0.14 0.02 71 1006.2
20141222212505 34 112 1.0 6.0 0.00 0.14 0.02 74 1006.0
20141222211505 34 121 1.0 3.0 0.00 0.14 0.02 74 1005.9
20141222210505 34 123 1.0 1.0 0.00 0.14 0.02 75 1005.8
20141222205505 34 123 1.0 2.0 0.00 0.14 0.02 75 1006.1
20141222204505 34 123 0.0 2.0 0.00 0.14 0.02 76 1006.2
20141222203505 34 117 2.0 9.0 0.00 0.14 0.02 76 1006.3
20141222202505 35 40 5.0 13.0 0.00 0.14 0.02 73 1006.3
20141222201505 35 36 3.0 12.0 0.00 0.14 0.02 67 1005.9
20141222200505 35 47 5.0 12.0 0.00 0.14 0.02 66 1006.0
20141222195505 36 41 5.0 10.0 0.00 0.14 0.02 69 1005.9
20141222194505 36 22 5.0 12.0 0.00 0.14 0.02 71 1005.8
20141222193505 36 38 5.0 14.0 0.00 0.14 0.02 74 1005.6
20141222192505 36 12 3.0 8.0 0.00 0.14 0.02 75 1005.5
20141222191505 36 10 3.0 5.0 0.00 0.14 0.02 76 1005.4
20141222190505 36 271 2.0 3.0 0.00 0.14 0.02 78 1005.3
20141222185505 36 249 2.0 5.0 0.00 0.14 0.02 79 1005.4
20141222184506 35 328 1.0 3.0 0.00 0.14 0.02 83 1005.6
20141222183505 35 279 2.0 3.0 0.00 0.14 0.02 85 1005.7
20141222182504 34 216 2.0 5.0 0.00 0.14 0.02 87 1005.8
20141222181505 34 236 2.0 5.0 0.00 0.14 0.02 89 1006.0
20141222180505 34 250 3.0 6.0 0.00 0.14 0.02 91 1006.1
20141222175505 33 160 2.0 3.0 0.00 0.14 0.02 93 1006.5
20141222174505 33 120 1.0 3.0 0.00 0.14 0.02 94 1006.5
20141222173504 33 205 1.0 3.0 0.00 0.14 0.02 95 1006.9
20141222172505 32 13 0.0 2.0 0.00 0.14 0.02 95 1006.7
20141222171505 32 13 1.0 2.0 0.00 0.14 0.02 95 1006.8
20141222170505 32 13 1.0 3.0 0.00 0.14 0.02 95 1006.8
20141222165505 31 263 1.0 2.0 0.00 0.14 0.02 95 1007.0
20141222164505 31 262 1.0 2.0 0.00 0.14 0.02 95 1007.0
20141222163505 31 262 0.0 1.0 0.00 0.14 0.02 95 1006.9
20141222162505 31 263 1.0 3.0 0.00 0.14 0.02 95 1007.0
20141222161505 31 252 0.0 2.0 0.00 0.14 0.02 95 1007.1
20141222160505 31 252 1.0 2.0 0.00 0.14 0.02 95 1007.1
20141222155505 30 223 1.0 3.0 0.00 0.14 0.02 95 1007.2
20141222154504 30 109 0.0 3.0 0.00 0.14 0.02 95 1007.2
20141222153505 30 113 2.0 3.0 0.00 0.14 0.02 95 1007.4
20141222152505 30 132 0.0 2.0 0.00 0.14 0.02 94 1007.5
20141222151504 30 132 1.0 2.0 0.00 0.14 0.02 94 1007.5
20141222150505 30 242 1.0 2.0 0.00 0.14 0.02 94 1007.5
20141222145505 30 242 0.0 1.0 0.00 0.14 0.02 94 1007.6
20141222144505 29 242 0.0 1.0 0.00 0.14 0.02 94 1007.6
20141222143504 29 242 0.0 2.0 0.00 0.14 0.02 94 1007.9
20141222142505 30 242 1.0 2.0 0.00 0.14 0.02 94 1008.0
20141222141505 30 242 0.0 1.0 0.00 0.14 0.02 94 1007.9
20141222140505 30 242 0.0 2.0 0.00 0.14 0.02 94 1008.1
20141222135505 30 242 1.0 3.0 0.00 0.14 0.02 94 1008.0
20141222134505 29 34 1.0 2.0 0.00 0.14 0.02 94 1008.0
20141222133504 29 34 1.0 3.0 0.00 0.14 0.02 94 1008.1
20141222132504 29 264 1.0 3.0 0.00 0.14 0.02 93 1008.0
20141222131505 29 306 1.0 2.0 0.00 0.14 0.02 94 1008.0
20141222130505 29 5 1.0 3.0 0.00 0.14 0.02 93 1007.9
20141222125505 29 9 2.0 3.0 0.00 0.14 0.02 93 1008.0
20141222124505 30 105 1.0 3.0 0.00 0.14 0.02 93 1008.0
20141222123505 30 53 1.0 2.0 0.00 0.14 0.02 93 1008.0
20141222122505 30 98 0.0 1.0 0.00 0.14 0.02 93 1008.1
20141222121504 30 98 0.0 2.0 0.00 0.14 0.02 93 1008.1
20141222120505 30 98 1.0 2.0 0.00 0.14 0.02 93 1008.0
20141222115505 31 98 1.0 2.0 0.00 0.14 0.02 93 1007.9
20141222114505 31 98 1.0 2.0 0.00 0.14 0.02 93 1007.7
20141222113504 31 98 0.0 1.0 0.00 0.14 0.02 93 1007.5
20141222112505 31 98 1.0 2.0 0.00 0.14 0.02 93 1007.6
20141222111505 31 98 1.0 2.0 0.00 0.14 0.02 93 1007.5
20141222110504 31 98 1.0 2.0 0.00 0.14 0.02 93 1007.5
20141222105505 31 98 0.0 1.0 0.00 0.14 0.02 93 1007.4
20141222104505 31 98 0.0 1.0 0.00 0.14 0.02 93 1007.4
20141222103504 31 98 1.0 2.0 0.00 0.14 0.02 93 1007.3
20141222102504 32 98 1.0 2.0 0.00 0.14 0.02 93 1007.2
20141222101505 32 98 0.0 3.0 0.00 0.14 0.02 93 1007.5
20141222100504 32 98 1.0 2.0 0.00 0.14 0.02 93 1007.4
20141222095505 32 98 1.0 2.0 0.00 0.14 0.02 93 1007.4
20141222094505 32 97 2.0 3.0 0.00 0.14 0.02 93 1007.4
20141222093504 32 345 1.0 3.0 0.00 0.14 0.02 93 1007.3
20141222092505 32 236 1.0 3.0 0.00 0.14 0.02 93 1007.4
20141222091505 32 222 3.0 7.0 0.00 0.14 0.02 93 1007.4
20141222090505 32 222 3.0 9.0 0.00 0.14 0.02 93 1007.0
20141222085504 32 214 3.0 8.0 0.00 0.14 0.02 93 1006.9
20141222084504 32 207 3.0 7.0 0.00 0.14 0.02 92 1007.1
20141222083505 32 240 3.0 6.0 0.00 0.14 0.02 92 1006.9
20141222082504 32 199 2.0 5.0 0.01 0.14 0.02 92 1007.0
20141222081505 32 187 1.0 5.0 0.02 0.14 0.02 92 1006.8
20141222080504 32 220 2.0 6.0 0.02 0.14 0.02 91 1006.9
20141222075505 32 210 2.0 5.0 0.02 0.14 0.02 91 1006.8
20141222074505 32 204 3.0 7.0 0.02 0.14 0.02 90 1006.7
20141222073505 33 167 2.0 3.0 0.02 0.14 0.02 90 1006.5
20141222072505 33 169 1.0 3.0 0.01 0.13 0.01 90 1006.8
20141222071505 33 193 2.0 3.0 0.00 0.12 0.00 90 1006.5
20141222070505 33 191 1.0 3.0 0.00 0.12 0.00 90 1007.1
20141222065504 33 214 2.0 5.0 0.01 0.12 0.12 90 1006.8
20141222064505 33 210 3.0 5.0 0.01 0.12 0.12 89 1007.0
20141222063504 34 229 1.0 2.0 0.02 0.12 0.12 89 1006.7
20141222062505 34 229 2.0 3.0 0.02 0.12 0.12 88 1006.6
20141222061505 34 18 1.0 2.0 0.06 0.12 0.12 88 1006.4
20141222060505 34 355 1.0 7.0 0.07 0.12 0.12 87 1006.6
20141222055505 35 5 3.0 12.0 0.06 0.11 0.11 87 1006.5
20141222054505 35 33 6.0 17.0 0.06 0.11 0.11 86 1006.7
20141222053504 36 357 7.0 17.0 0.06 0.10 0.10 84 1006.3
20141222052504 38 8 7.0 17.0 0.08 0.10 0.10 86 1006.0
20141222051505 38 313 1.0 2.0 0.06 0.06 0.06 87 1005.6
20141222050505 39 313 2.0 5.0 0.05 0.05 0.05 86 1005.3
20141222045505 39 209 2.0 3.0 0.05 0.05 0.05 85 1004.9
20141222044504 39 298 2.0 7.0 0.05 0.05 0.05 84 1004.9
20141222043505 39 318 4.0 12.0 0.04 0.04 0.04 83 1004.9
20141222042505 40 299 3.0 7.0 0.02 0.02 0.02 81 1004.9